• In Russia
  • List of Countries
  • For 7 days
  • Water Temperature
  • Satellite Maps
  • Weather Map
  • Weather Widgets
  • user-avatar
    Login

    Hourly Weather Sumgayit

    Today, 22 September, Saturday

    Time Temperature Precipitation Wind Pressure Humidity
    00:00 +23°C° 0 mm 1 mps 743 mmHg 75%
    01:00 +23°C° 0 mm 1 mps 743 mmHg 76%
    02:00 +23°C° 0 mm 1 mps 743 mmHg 76%
    03:00 +20°C° 0 mm 0 mps 742 mmHg 77%
    04:00 +20°C° 0 mm 0 mps 743 mmHg 77%
    05:00 +20°C° 0 mm 0 mps 743 mmHg 77%
    06:00 +20°C° 0 mm 0 mps 743 mmHg 77%
    07:00 +23°C° 0 mm 1 mps 743 mmHg 72%
    08:00 +24°C° 0 mm 1 mps 743 mmHg 67%
    09:00 +25°C° 0 mm 2 mps 743 mmHg 62%
    10:00 +26°C° 0 mm 2 mps 743 mmHg 60%
    11:00 +26°C° 0 mm 3 mps 743 mmHg 57%
    12:00 +27°C° 0 mm 3 mps 743 mmHg 54%
    13:00 +27°C° 0 mm 4 mps 743 mmHg 54%
    14:00 +27°C° 0 mm 4 mps 742 mmHg 53%
    15:00 +27°C° 0 mm 4 mps 742 mmHg 53%
    16:00 +26°C° 0 mm 4 mps 742 mmHg 55%
    17:00 +26°C° 0 mm 4 mps 742 mmHg 56%
    18:00 +25°C° 0 mm 4 mps 742 mmHg 57%
    19:00 +25°C° 0 mm 3 mps 742 mmHg 59%
    20:00 +24°C° 0 mm 3 mps 742 mmHg 60%
    21:00 +24°C° 0 mm 2 mps 742 mmHg 62%
    22:00 +24°C° 0 mm 2 mps 742 mmHg 63%
    23:00 +24°C° 0 mm 2 mps 742 mmHg 64%

    Tomorrow, 23 September, Sunday

    Time Temperature Precipitation Wind Pressure Humidity
    00:00 +23°C° 0 mm 2 mps 742 mmHg 65%
    01:00 +23°C° 0 mm 2 mps 741 mmHg 65%
    02:00 +23°C° 0 mm 2 mps 741 mmHg 66%
    03:00 +23°C° 0 mm 2 mps 741 mmHg 67%
    04:00 +21°C° 0 mm 2 mps 741 mmHg 68%
    05:00 +21°C° 0 mm 2 mps 741 mmHg 69%
    06:00 +21°C° 0 mm 2 mps 741 mmHg 70%
    07:00 +23°C° 0 mm 2 mps 741 mmHg 64%
    08:00 +24°C° 0 mm 2 mps 741 mmHg 58%
    09:00 +25°C° 0 mm 2 mps 741 mmHg 53%
    10:00 +26°C° 0 mm 2 mps 741 mmHg 49%
    11:00 +27°C° 0 mm 3 mps 741 mmHg 46%
    12:00 +28°C° 0 mm 3 mps 741 mmHg 43%
    13:00 +28°C° 0 mm 4 mps 740 mmHg 42%
    14:00 +28°C° 0 mm 4 mps 740 mmHg 42%
    15:00 +29°C° 0 mm 5 mps 740 mmHg 42%
    16:00 +28°C° 0 mm 5 mps 740 mmHg 44%
    17:00 +27°C° 0 mm 4 mps 739 mmHg 46%
    18:00 +26°C° 0 mm 4 mps 739 mmHg 48%
    19:00 +26°C° 0 mm 4 mps 739 mmHg 49%
    20:00 +26°C° 0 mm 3 mps 740 mmHg 50%
    21:00 +25°C° 0 mm 2 mps 740 mmHg 51%
    22:00 +25°C° 0 mm 2 mps 740 mmHg 53%
    23:00 +25°C° 0 mm 2 mps 739 mmHg 54%

    Day after tomorrow, 24 September, Monday

    Time Temperature Precipitation Wind Pressure Humidity
    00:00 +24°C° 0 mm 1 mps 739 mmHg 56%
    01:00 +24°C° 0 mm 1 mps 739 mmHg 56%
    02:00 +24°C° 0 mm 1 mps 739 mmHg 56%
    03:00 +23°C° 0 mm 1 mps 739 mmHg 57%
    04:00 +23°C° 0 mm 1 mps 739 mmHg 58%
    05:00 +23°C° 0 mm 2 mps 740 mmHg 60%
    06:00 +23°C° 0 mm 2 mps 740 mmHg 61%
    07:00 +24°C° 0 mm 3 mps 740 mmHg 59%
    08:00 +25°C° 0 mm 3 mps 741 mmHg 56%
    09:00 +26°C° 0 mm 4 mps 741 mmHg 53%
    10:00 +27°C° 0 mm 4 mps 741 mmHg 50%
    11:00 +28°C° 0 mm 4 mps 741 mmHg 46%
    12:00 +28°C° 0 mm 5 mps 741 mmHg 43%
    13:00 +28°C° 0 mm 6 mps 741 mmHg 43%
    14:00 +28°C° 0 mm 6 mps 741 mmHg 43%
    15:00 +28°C° 0 mm 7 mps 741 mmHg 43%
    16:00 +27°C° 0 mm 6 mps 741 mmHg 46%
    17:00 +26°C° 0 mm 6 mps 741 mmHg 50%
    18:00 +24°C° 0 mm 6 mps 741 mmHg 53%
    19:00 +25°C° 0 mm 5 mps 741 mmHg 54%
    20:00 +25°C° 0 mm 4 mps 741 mmHg 55%
    21:00 +23°C° 0 mm 4 mps 741 mmHg 56%
    22:00 +24°C° 0 mm 3 mps 741 mmHg 57%
    23:00 +24°C° 0 mm 3 mps 741 mmHg 58%

    25 September, Tuesday

    Time Temperature Precipitation Wind Pressure Humidity
    00:00 +23°C° 0 mm 2 mps 740 mmHg 59%
    01:00 +23°C° 0 mm 2 mps 740 mmHg 60%
    02:00 +23°C° 0 mm 1 mps 740 mmHg 61%
    03:00 +22°C° 0 mm 1 mps 740 mmHg 62%
    04:00 +22°C° 0 mm 1 mps 740 mmHg 62%
    05:00 +22°C° 0 mm 1 mps 740 mmHg 62%
    06:00 +22°C° 0 mm 1 mps 740 mmHg 62%
    07:00 +24°C° 0 mm 2 mps 740 mmHg 56%
    08:00 +25°C° 0 mm 3 mps 740 mmHg 50%
    09:00 +26°C° 0 mm 4 mps 740 mmHg 44%
    10:00 +27°C° 0 mm 5 mps 739 mmHg 42%
    11:00 +28°C° 0 mm 5 mps 739 mmHg 39%
    12:00 +29°C° 0 mm 6 mps 739 mmHg 37%
    13:00 +29°C° 0 mm 6 mps 738 mmHg 37%
    14:00 +29°C° 0 mm 6 mps 738 mmHg 37%
    15:00 +30°C° 0 mm 6 mps 738 mmHg 38%
    16:00 +29°C° 0 mm 5 mps 738 mmHg 42%
    17:00 +28°C° 0 mm 5 mps 738 mmHg 46%
    18:00 +27°C° 0 mm 5 mps 738 mmHg 50%
    19:00 +26°C° 0 mm 4 mps 738 mmHg 53%
    20:00 +25°C° 0 mm 3 mps 739 mmHg 57%
    21:00 +25°C° 0 mm 3 mps 739 mmHg 60%
    22:00 +25°C° 0 mm 2 mps 739 mmHg 62%
    23:00 +24°C° 0 mm 2 mps 739 mmHg 64%

    26 September, Wednesday

    Time Temperature Precipitation Wind Pressure Humidity
    00:00 +24°C° 0 mm 1 mps 739 mmHg 66%
    01:00 +24°C° 0 mm 1 mps 739 mmHg 66%
    02:00 +23°C° 0 mm 1 mps 739 mmHg 67%
    03:00 +23°C° 0 mm 1 mps 739 mmHg 67%
    04:00 +23°C° 0 mm 1 mps 739 mmHg 69%
    05:00 +23°C° 0 mm 2 mps 739 mmHg 70%
    06:00 +22°C° 0 mm 3 mps 740 mmHg 71%
    07:00 +22°C° 0 mm 5 mps 740 mmHg 67%
    08:00 +23°C° 0 mm 6 mps 741 mmHg 63%
    09:00 +24°C° 0 mm 8 mps 741 mmHg 58%
    10:00 +24°C° 0 mm 9 mps 741 mmHg 56%
    11:00 +24°C° 0 mm 9 mps 741 mmHg 54%
    12:00 +24°C° 0 mm 10 mps 741 mmHg 53%
    13:00 +24°C° 0 mm 11 mps 741 mmHg 54%
    14:00 +23°C° 0 mm 12 mps 741 mmHg 55%
    15:00 +23°C° 0 mm 12 mps 741 mmHg 57%
    16:00 +22°C° 0 mm 12 mps 741 mmHg 60%
    17:00 +21°C° 0 mm 12 mps 741 mmHg 64%
    18:00 +19°C° 0 mm 12 mps 742 mmHg 67%
    19:00 +19°C° 0 mm 12 mps 742 mmHg 67%
    20:00 +18°C° 0 mm 12 mps 742 mmHg 68%
    21:00 +18°C° 0 mm 11 mps 742 mmHg 68%
    22:00 +18°C° 0 mm 11 mps 742 mmHg 68%
    23:00 +18°C° 0 mm 10 mps 742 mmHg 69%

    27 September, Thursday

    Time Temperature Precipitation Wind Pressure Humidity
    00:00 +18°C° 0 mm 10 mps 742 mmHg 69%
    01:00 +18°C° 0 mm 9 mps 742 mmHg 70%
    02:00 +18°C° 0 mm 9 mps 741 mmHg 71%
    03:00 +18°C° 0 mm 8 mps 741 mmHg 72%
    04:00 +18°C° 0 mm 8 mps 741 mmHg 72%
    05:00 +18°C° 0 mm 8 mps 741 mmHg 72%
    06:00 +18°C° 0 mm 8 mps 742 mmHg 72%
    07:00 +20°C° 0 mm 7 mps 742 mmHg 70%
    08:00 +20°C° 0 mm 7 mps 742 mmHg 67%
    09:00 +21°C° 0 mm 7 mps 742 mmHg 65%
    10:00 +22°C° 0 mm 7 mps 742 mmHg 62%
    11:00 +23°C° 0 mm 7 mps 742 mmHg 59%
    12:00 +24°C° 0 mm 7 mps 742 mmHg 56%
    13:00 +24°C° 0 mm 7 mps 741 mmHg 58%
    14:00 +23°C° 0 mm 7 mps 741 mmHg 59%
    15:00 +23°C° 0 mm 7 mps 741 mmHg 61%
    16:00 +23°C° 0 mm 7 mps 741 mmHg 64%
    17:00 +22°C° 0 mm 7 mps 742 mmHg 67%
    18:00 +21°C° 0 mm 8 mps 742 mmHg 70%
    19:00 +21°C° 0 mm 8 mps 742 mmHg 71%
    20:00 +21°C° 0 mm 8 mps 742 mmHg 71%
    21:00 +21°C° 0 mm 8 mps 742 mmHg 71%
    22:00 +21°C° 0 mm 7 mps 742 mmHg 71%
    23:00 +21°C° 0 mm 7 mps 742 mmHg 71%
    Show more